sat.trackr.live / text

‹ back to catalog

STARLINK-31442

NORAD 59859 · 2024-098B

PAYLOAD ACTIVE UNKNOWN

§ Identity

Operator
Country
US
Launch date
2024-05-24
Launch site
AFETR
Launch vehicle
Mass (kg)
RCS (m²)

Purposes: comms

External: N2YO · Heavens-Above · Gunter

§ Orbital elements

Epoch: 2026-09-21T08:15:32.325696Z

Period
94.27 min
Inclination
43.0037°
Eccentricity
0.0001894
Mean motion
15.27571838 rev/d
Perigee alt
481.8 km
Apogee alt
484.4 km
Semi-major
6,861.2 km
B*
-2.1892e-4
RAAN
256.9402°
Arg perigee
263.9108°
Mean anomaly
96.1528°
Rev number
13,172

§ Raw data

STARLINK-314421 59859U 24098B   26264.34412414 -.00006280  00000+0 -21892-3 0  99942 59859  43.0037 256.9402 0001894 263.9108  96.1528 15.27571838131726

JSON: /api/v1/satellites/59859 · /tle

For live sub-satellite position, see the globe view (requires WebGL).

§ Visibility from observer

Set your observer location to see the next 7 days of passes ≥ 10°. The values pass through the URL so the page stays shareable.

No JS? Fill the form by hand. The geolocation button needs JavaScript.